sat.trackr.live / text

‹ back to catalog

STARLINK-34669

NORAD 64811 · 2025-150X

PAYLOAD ACTIVE UNKNOWN

§ Identity

Operator
Country
US
Launch date
2025-07-16
Launch site
AFWTR
Launch vehicle
Mass (kg)
RCS (m²)

Purposes: comms

External: N2YO · Heavens-Above · Gunter

§ Orbital elements

Epoch: 2026-09-20T14:01:37.915968Z

Period
96.11 min
Inclination
70.0022°
Eccentricity
0.0003288
Mean motion
14.98337942 rev/d
Perigee alt
569.7 km
Apogee alt
574.3 km
Semi-major
6,950.2 km
B*
3.1752e-4
RAAN
2.9118°
Arg perigee
265.3398°
Mean anomaly
94.7385°
Rev number
6,571

§ Raw data

STARLINK-346691 64811U 25150X   26263.58446662  .00003698  00000+0  31752-3 0  99992 64811  70.0022   2.9118 0003288 265.3398  94.7385 14.98337942 65716

JSON: /api/v1/satellites/64811 · /tle

For live sub-satellite position, see the globe view (requires WebGL).

§ Visibility from observer

Set your observer location to see the next 7 days of passes ≥ 10°. The values pass through the URL so the page stays shareable.

No JS? Fill the form by hand. The geolocation button needs JavaScript.